Rogers City, MI

9:03 PM EST on November 17, 2017 (GMT -0500)
Presque Isle County

Weather History for KPZQ - February, 2014

Change the Weather History Date:

Monday, February 24, 2014

  Actual Average (KAPN) Record (KAPN)
Temperature  
Mean Temperature 10 °F -  
Max Temperature 15 °F 30 °F 56 °F (1976)
Min Temperature 5 °F 12 °F -24 °F (1924)
Degree Days  
Heating Degree Days 55    
Moisture  
Dew Point 1 °F    
Average Humidity 70    
Maximum Humidity 87    
Minimum Humidity 49    
Precipitation  
Precipitation 0.00 in - - ()
Sea Level Pressure  
Sea Level Pressure 30.03 in    
Wind  
Wind Speed 9 mph (West)    
Max Wind Speed 18 mph    
Max Gust Speed 25 mph    
Visibility 10 miles    
Events Snow    
Averages and records for this station are not official NWS values.
T = Trace of Precipitation, MM = Missing Value Source: NWS Daily Summary

Daily Weather History Graph

Daily Weather History Graph

Search for Another Location

Airport or City:

Trip Planner

Search our weather history database for the weather conditions in past years. The results will help you decide how hot, cold, wet, or windy it might be!

Date:

Astronomy

Feb. 24, 2014 Rise Set
Actual Time 7:22 AM EST 6:15 PM EST
Civil Twilight 6:52 AM EST 6:45 PM EST
Nautical Twilight 6:18 AM EST 7:19 PM EST
Astronomical Twilight 5:43 AM EST 7:53 PM EST
Moon 3:28 AM EST (2/24) 1:06 PM EST (2/24)
Length of Visible Light 11h 53m
Length of Day
10h 53m
Waning Crescent, 28% of the Moon is Illuminated
Feb 24
Waning Crescent
Mar 1
New
Mar 8
First Quarter
Mar 16
Full
Mar 23
Last Quarter

Hourly Weather History & Observations

Time (EST) Temp. Windchill Dew Point Humidity Pressure Visibility Wind Dir Wind Speed Gust Speed Precip Events Conditions
12:15 AM 7.7 °F -2.4 °F 1.9 °F 77% 29.96 in 10.0 mi West 5.8 mph - N/A   Clear
12:35 AM 7.5 °F -3.9 °F 0.5 °F 73% 29.96 in 10.0 mi WSW 6.9 mph - N/A   Scattered Clouds
12:54 AM 8.4 °F -3.9 °F 0.5 °F 70% 29.96 in 10.0 mi West 8.1 mph - N/A   Mostly Cloudy
1:15 AM 9.1 °F -3.0 °F 0.5 °F 68% 29.97 in 10.0 mi West 8.1 mph - N/A   Overcast
1:35 AM 9.5 °F -1.5 °F 0.9 °F 68% 29.97 in 10.0 mi West 6.9 mph - N/A   Overcast
1:55 AM 9.1 °F -1.9 °F 1.4 °F 71% 29.96 in 10.0 mi West 6.9 mph - N/A   Overcast
2:15 AM 9.1 °F -0.7 °F 1.4 °F 71% 29.96 in 10.0 mi West 5.8 mph - N/A   Overcast
2:34 AM 8.6 °F -2.6 °F 1.4 °F 73% 29.96 in 10.0 mi West 6.9 mph - N/A   Mostly Cloudy
2:55 AM 8.4 °F -2.8 °F 1.9 °F 75% 29.95 in 10.0 mi West 6.9 mph - N/A   Scattered Clouds
3:15 AM 8.2 °F -5.1 °F 2.8 °F 79% 29.94 in 10.0 mi West 9.2 mph - N/A   Clear
3:35 AM 8.4 °F -2.8 °F 3.6 °F 81% 29.94 in 10.0 mi West 6.9 mph - N/A   Clear
3:55 AM 8.1 °F -3.2 °F 3.6 °F 82% 29.95 in 10.0 mi West 6.9 mph - N/A   Clear
4:14 AM 7.7 °F -3.7 °F 3.2 °F 82% 29.96 in 10.0 mi WSW 6.9 mph - N/A   Clear
4:35 AM 6.3 °F -5.4 °F 2.1 °F 83% 29.96 in 10.0 mi WSW 6.9 mph - N/A   Clear
4:55 AM 6.8 °F -4.8 °F 3.2 °F 85% 29.96 in 10.0 mi West 6.9 mph - N/A   Clear
5:14 AM 6.6 °F -3.7 °F 2.7 °F 84% 29.97 in 10.0 mi West 5.8 mph - N/A   Clear
5:35 AM 6.4 °F -5.2 °F 2.8 °F 85% 29.97 in 10.0 mi West 6.9 mph - N/A   Clear
5:55 AM 5.9 °F -4.5 °F 2.3 °F 85% 29.97 in 10.0 mi West 5.8 mph - N/A   Clear
6:14 AM 5.9 °F -5.8 °F 2.3 °F 85% 29.97 in 10.0 mi West 6.9 mph - N/A   Clear
6:35 AM 5.9 °F -5.8 °F 2.7 °F 87% 29.97 in 10.0 mi West 6.9 mph - N/A   Clear
6:55 AM 5.7 °F -6.1 °F 2.3 °F 86% 29.98 in 10.0 mi West 6.9 mph - N/A   Clear
7:15 AM 5.7 °F -6.1 °F 2.3 °F 86% 29.98 in 10.0 mi West 6.9 mph - N/A   Clear
7:35 AM 5.5 °F -6.3 °F 2.1 °F 86% 29.99 in 10.0 mi West 6.9 mph - N/A   Scattered Clouds
7:54 AM 5.9 °F -7.0 °F 2.3 °F 85% 30.00 in 10.0 mi West 8.1 mph - N/A   Clear
8:15 AM 6.6 °F -6.1 °F 2.5 °F 83% 30.00 in 10.0 mi West 8.1 mph - N/A   Scattered Clouds
8:35 AM 7.3 °F -6.2 °F 2.8 °F 82% 30.01 in 10.0 mi West 9.2 mph - N/A   Scattered Clouds
8:54 AM 8.2 °F -4.1 °F 3.0 °F 79% 30.01 in 10.0 mi West 8.1 mph - N/A   Mostly Cloudy
9:15 AM 9.5 °F -3.5 °F 3.6 °F 77% 30.02 in 7.0 mi West 9.2 mph - N/A   Scattered Clouds
9:35 AM 10.4 °F -6.6 °F 3.6 °F 74% 30.02 in 10.0 mi West 16.1 mph 19.6 mph N/A   Scattered Clouds
9:54 AM 11.3 °F -2.9 °F 3.7 °F 72% 30.02 in 10.0 mi West 11.5 mph 20.7 mph N/A   Scattered Clouds
10:15 AM 11.7 °F -3.2 °F 2.8 °F 68% 30.02 in 10.0 mi WNW 12.7 mph 24.2 mph N/A   Scattered Clouds
10:34 AM 12.0 °F -2.7 °F 1.6 °F 63% 30.02 in 10.0 mi WNW 12.7 mph 19.6 mph N/A   Mostly Cloudy
10:55 AM 12.2 °F -1.8 °F 2.1 °F 64% 30.02 in 10.0 mi West 11.5 mph 18.4 mph N/A   Overcast
11:15 AM 12.6 °F -2.7 °F 1.6 °F 62% 30.02 in 10.0 mi WNW 13.8 mph 21.9 mph N/A   Overcast
11:34 AM 13.1 °F -2.0 °F 0.9 °F 58% 30.03 in 10.0 mi West 13.8 mph 20.7 mph N/A   Overcast
11:55 AM 13.5 °F -1.5 °F 1.2 °F 58% 30.03 in 10.0 mi West 13.8 mph 18.4 mph N/A   Overcast
12:15 PM 14.0 °F -0.8 °F 0.3 °F 55% 30.03 in 10.0 mi West 13.8 mph 18.4 mph N/A   Overcast
12:35 PM 13.8 °F -2.2 °F -0.8 °F 52% 30.03 in 10.0 mi West 16.1 mph 23.0 mph N/A   Overcast
12:55 PM 14.9 °F -1.8 °F -0.4 °F 51% 30.02 in 10.0 mi WSW 18.4 mph 24.2 mph N/A   Overcast
1:14 PM 14.4 °F 0.2 °F -0.6 °F 52% 30.02 in 10.0 mi West 12.7 mph 25.3 mph N/A   Overcast
1:35 PM 15.4 °F -0.1 °F -0.8 °F 49% 30.02 in 10.0 mi West 16.1 mph 21.9 mph N/A   Overcast
1:55 PM 14.9 °F 0.9 °F -0.2 °F 51% 30.03 in 10.0 mi West 12.7 mph 23.0 mph N/A   Overcast
2:14 PM 14.5 °F 1.9 °F -0.4 °F 52% 30.03 in 10.0 mi West 10.4 mph 18.4 mph N/A   Overcast
2:35 PM 14.5 °F 0.5 °F -0.2 °F 52% 30.04 in 10.0 mi West 12.7 mph 21.9 mph N/A   Overcast
2:54 PM 14.0 °F 0.5 °F 0.1 °F 54% 30.04 in 10.0 mi WSW 11.5 mph 20.7 mph N/A   Overcast
3:15 PM 14.2 °F 0.7 °F -0.8 °F 52% 30.05 in 10.0 mi West 11.5 mph 21.9 mph N/A   Overcast
3:34 PM 13.6 °F 0.7 °F -0.4 °F 54% 30.05 in 10.0 mi West 10.4 mph 20.7 mph N/A   Overcast
3:55 PM 14.4 °F -1.0 °F -0.6 °F 52% 30.05 in 10.0 mi West 15.0 mph 20.7 mph N/A   Overcast
4:15 PM 14.5 °F -0.7 °F -0.4 °F 52% 30.06 in 10.0 mi West 15.0 mph 24.2 mph N/A   Overcast
4:34 PM 14.4 °F -0.4 °F -0.0 °F 53% 30.07 in 10.0 mi West 13.8 mph 21.9 mph N/A   Overcast
4:55 PM 14.0 °F -0.8 °F 1.2 °F 57% 30.07 in 10.0 mi West 13.8 mph 21.9 mph N/A   Overcast
5:14 PM 13.5 °F -0.9 °F 2.7 °F 62% 30.08 in 7.0 mi West 12.7 mph 21.9 mph N/A   Overcast
5:35 PM 12.0 °F -1.3 °F 2.1 °F 65% 30.08 in 10.0 mi West 10.4 mph 19.6 mph N/A   Scattered Clouds
5:55 PM 11.8 °F -0.7 °F 1.4 °F 63% 30.09 in 10.0 mi West 9.2 mph 19.6 mph N/A   Clear
6:14 PM 11.3 °F -1.3 °F 2.3 °F 67% 30.09 in 10.0 mi WNW 9.2 mph - N/A   Scattered Clouds
6:35 PM 10.9 °F -0.8 °F 3.2 °F 71% 30.10 in 10.0 mi West 8.1 mph 16.1 mph N/A   Mostly Cloudy
6:55 PM 10.2 °F 0.6 °F 4.5 °F 78% 30.10 in 7.0 mi WNW 5.8 mph - N/A Snow Light Snow
7:14 PM 9.5 °F -3.5 °F 3.9 °F 78% 30.11 in 10.0 mi WNW 9.2 mph - N/A   Scattered Clouds
7:35 PM 9.0 °F -4.2 °F 2.1 °F 74% 30.10 in 10.0 mi WNW 9.2 mph - N/A   Clear
7:55 PM 8.6 °F -2.6 °F 1.2 °F 72% 30.10 in 10.0 mi WNW 6.9 mph - N/A   Clear
8:14 PM 8.1 °F -5.3 °F 0.5 °F 71% 30.10 in 10.0 mi West 9.2 mph - N/A   Clear
8:35 PM 7.3 °F -5.2 °F 0.1 °F 72% 30.10 in 10.0 mi West 8.1 mph - N/A   Clear
8:55 PM 6.8 °F -4.8 °F -0.4 °F 72% 30.10 in 10.0 mi West 6.9 mph - N/A   Clear
9:14 PM 6.8 °F -3.5 °F -0.4 °F 72% 30.11 in 10.0 mi West 5.8 mph - N/A   Clear
9:35 PM 6.4 °F -5.2 °F -0.4 °F 74% 30.11 in 10.0 mi West 6.9 mph - N/A   Clear
9:54 PM 5.9 °F -4.5 °F -0.6 °F 75% 30.11 in 10.0 mi West 5.8 mph - N/A   Clear
10:15 PM 5.9 °F -5.8 °F -1.3 °F 72% 30.11 in 10.0 mi West 6.9 mph - N/A   Clear
10:35 PM 5.0 °F -6.9 °F -1.7 °F 74% 30.12 in 10.0 mi West 6.9 mph - N/A   Clear
10:54 PM 5.0 °F -6.9 °F -1.3 °F 75% 30.12 in 10.0 mi West 6.9 mph - N/A   Mostly Cloudy
11:15 PM 5.9 °F -7.0 °F -0.4 °F 75% 30.11 in 10.0 mi West 8.1 mph - N/A   Overcast
11:35 PM 6.6 °F -6.1 °F 1.6 °F 80% 30.11 in 3.0 mi West 8.1 mph - N/A Snow Light Snow
11:54 PM 6.8 °F -5.9 °F 2.3 °F 82% 30.11 in 5.0 mi West 8.1 mph - N/A   Haze